Wind_Speed
12 11 10 10 10 9 8 9 10 11 12 13 13 14 14 14 15 14 12 11 12 13 12 11 11 10 6 4 4 4 4 4 4 4 4 4 5 6 6 6 6 8 9 12 14 15 16 17 19 21 23 25 28 30 33 35 37 38 40 41 42 43 43 43 44 44 45 46 47 47 46 45 43 42 41 40 38 38 40 42 44 48 51 51 50
13 12 11 11 11 9 8 9 10 11 13 14 15 15 15 15 15 14 13 12 13 13 12 12 11 6 4 4 3 3 3 3 3 3 4 5 6 6 6 6 7 9 12 13 15 17 18 19 21 23 25 28 31 34 36 39 41 43 44 45 46 46 47 46 46 46 47 48 49 49 49 48 47 44 42 41 40 38 39 41 43 46 51 53 54
14 14 13 13 12 11 11 11 11 11 12 13 14 14 14 13 13 14 13 13 13 13 13 13 8 3 5 3 2 1 2 2 3 3 4 5 6 6 6 7 8 11 13 15 16 18 20 22 24 26 29 31 34 37 39 42 44 45 47 48 49 49 50 51 51 51 51 50 50 50 50 49 47 45 43 41 39 36 37 39 40 43 48 52 54
16 16 15 14 13 12 11 11 11 11 11 12 13 13 13 12 11 12 12 12 12 11 12 11 3 4 5 2 1 1 1 2 3 3 4 6 7 7 6 8 10 12 14 16 17 19 22 24 26 29 31 34 37 39 42 44 46 48 50 52 54 55 55 55 54 52 50 47 45 43 43 43 42 40 37 34 33 33 34 35 37 40 45 50 53
18 18 17 15 13 12 12 11 10 10 11 12 12 13 12 10 10 9 9 9 8 7 7 4 2 5 3 2 1 0 1 2 3 4 5 7 7 6 7 9 11 13 16 17 19 21 23 26 28 31 34 36 39 41 43 45 49 52 54 56 57 56 53 49 46 42 40 37 36 33 31 31 30 29 28 27 27 29 30 31 32 36 41 47 51
19 19 17 15 12 12 12 11 11 11 11 12 12 11 9 7 6 5 4 4 4 2 1 3 5 3 2 2 0 1 1 2 3 5 6 7 6 7 8 10 12 14 16 18 21 23 25 28 30 33 36 38 40 42 45 49 51 52 52 52 51 47 43 39 35 32 29 28 26 24 21 20 19 20 21 22 22 24 26 26 28 32 37 42 47
20 19 17 14 12 12 11 11 11 11 11 11 10 8 6 4 3 3 2 3 4 4 5 6 5 3 2 1 1 1 2 3 4 6 7 7 7 7 9 11 13 15 18 20 22 25 27 29 32 34 36 38 40 45 48 47 45 45 46 45 42 38 34 31 27 25 23 21 19 17 15 15 15 16 17 18 18 19 20 20 21 24 30 36 42
20 19 17 13 11 11 10 10 10 10 11 10 8 7 5 4 5 5 5 7 7 7 7 7 4 2 1 1 1 2 3 4 5 7 9 8 8 8 10 12 14 17 19 21 23 25 28 30 32 34 36 38 43 47 44 39 38 40 42 42 38 34 29 26 23 21 19 17 14 13 12 13 14 15 15 16 16 15 15 15 16 18 22 28 34
20 19 15 11 9 10 9 9 9 10 11 10 9 8 7 7 7 8 8 8 7 6 6 5 3 1 1 1 2 3 3 4 7 9 9 8 8 9 11 13 16 18 20 22 24 26 28 31 32 34 36 41 46 44 37 33 35 38 38 38 36 32 28 25 23 20 18 17 14 12 11 12 14 15 15 15 15 14 13 12 13 15 18 21 26
21 18 13 9 8 8 8 9 10 11 11 11 11 11 11 10 10 9 9 7 6 5 5 4 3 2 2 2 3 3 4 6 8 9 8 8 8 9 11 14 16 18 20 23 25 27 29 31 33 35 38 44 46 39 33 34 35 35 35 35 33 31 28 26 24 22 20 18 16 14 12 12 13 14 15 14 14 13 12 11 11 12 14 16 20
20 16 12 8 8 7 7 9 10 11 11 12 12 12 11 11 9 8 8 6 5 5 5 5 4 4 3 3 4 4 5 7 8 9 9 8 8 10 12 15 17 18 21 23 25 27 29 31 33 35 40 46 44 35 32 35 35 35 34 33 32 30 28 27 24 22 21 19 17 16 14 13 13 13 13 13 12 12 12 13 13 12 13 14 16
17 14 10 8 8 7 7 9 9 10 11 11 11 11 10 10 8 7 7 6 6 6 5 5 4 4 4 4 4 4 5 7 9 10 9 9 10 11 13 15 17 18 21 23 25 27 29 31 33 36 42 47 43 33 32 35 35 35 33 32 31 30 28 27 25 23 22 20 19 17 15 14 14 13 12 11 11 11 11 12 14 14 14 14 15
15 13 10 8 8 7 8 9 9 10 10 10 10 10 9 8 7 6 6 6 5 5 4 3 4 3 4 5 4 5 6 8 10 10 10 10 11 12 14 15 17 18 21 23 25 28 29 31 33 36 42 47 43 34 32 35 35 34 33 31 30 29 28 27 26 24 22 20 19 18 16 15 15 14 13 11 11 11 11 11 12 12 13 13 14
14 12 10 9 7 7 7 8 8 9 9 9 9 8 8 7 6 6 5 5 5 4 4 3 3 4 4 4 4 5 6 8 11 11 10 10 11 12 14 15 17 18 21 23 25 28 29 30 33 36 41 47 44 35 32 35 35 34 32 31 30 28 27 26 25 24 21 20 19 18 16 16 16 15 14 13 12 11 11 11 12 12 11 10 11
14 12 11 9 7 7 7 7 7 8 8 8 8 8 7 7 6 5 5 5 4 4 4 3 3 3 4 4 5 5 6 8 11 12 11 11 11 12 14 15 16 18 21 23 26 28 29 30 32 35 40 46 46 39 34 34 36 34 32 31 30 28 26 25 24 23 21 20 19 18 17 17 17 17 16 15 14 13 12 11 11 12 12 11 9
14 13 12 10 8 7 6 6 6 7 7 8 8 8 8 7 6 6 5 5 4 3 3 3 3 4 4 5 5 6 6 8 10 12 12 12 12 12 13 14 16 18 21 23 26 28 29 30 31 34 38 43 46 44 38 34 34 35 33 31 29 27 26 25 24 23 21 20 19 18 18 17 17 17 17 16 15 14 13 13 12 11 11 11 11
14 13 11 9 7 6 5 5 5 6 6 7 7 8 7 7 6 6 6 5 4 3 3 3 3 4 5 5 6 6 7 8 9 12 13 13 12 12 13 15 16 18 21 23 26 28 29 30 31 33 37 40 43 45 43 38 35 34 34 32 30 29 27 25 24 23 22 21 20 19 19 18 18 17 17 16 15 15 14 14 12 11 10 9 9
14 13 11 9 7 6 5 5 5 5 6 6 7 8 8 7 7 7 7 6 5 4 4 4 4 5 5 6 6 6 7 8 9 11 13 13 13 12 13 15 16 18 21 23 25 28 29 30 30 31 35 38 41 43 44 43 40 37 35 34 32 31 29 27 26 24 23 22 21 20 20 19 18 17 16 16 16 15 15 14 13 12 11 10 8
13 13 12 10 8 7 6 6 6 6 6 7 7 8 8 8 8 8 8 7 6 5 5 4 5 6 6 6 7 7 7 8 9 10 12 13 14 13 13 15 17 18 20 22 25 27 29 31 31 30 32 36 39 41 42 43 43 42 39 37 35 33 31 29 27 26 25 23 22 21 20 19 17 17 17 17 16 16 15 15 14 12 11 11 10
12 13 13 11 9 8 7 6 6 6 7 7 7 8 8 8 8 8 8 7 5 5 5 5 5 6 6 7 8 8 8 9 9 10 11 12 13 14 14 15 17 18 20 22 24 26 28 30 31 30 31 34 37 39 40 41 42 43 43 41 39 36 34 31 29 28 26 25 22 21 19 17 16 16 16 16 16 17 16 16 15 13 12 11 10
11 13 13 13 12 9 7 6 5 6 6 7 7 7 8 7 7 7 7 7 5 5 5 5 6 7 7 8 8 9 9 9 10 11 11 12 13 14 15 16 16 17 19 21 23 26 27 30 31 30 30 32 35 37 38 40 41 42 42 43 42 41 38 35 32 30 27 25 22 20 19 16 15 15 15 15 17 18 18 18 17 15 14 12 11
10 11 12 13 13 11 9 7 5 5 6 6 7 7 8 8 8 8 8 8 7 6 5 5 5 6 7 8 9 9 10 10 10 11 12 12 12 13 15 16 16 17 18 20 22 24 26 28 30 30 30 31 33 35 36 38 39 40 41 42 42 42 41 40 37 33 29 26 23 21 18 15 14 14 14 14 17 19 19 19 18 17 15 14 12
10 10 11 11 12 12 11 10 8 7 7 7 8 8 9 9 10 9 9 9 8 8 8 7 6 6 7 8 9 10 11 11 11 11 12 12 13 13 14 16 17 17 18 19 21 23 25 27 29 30 31 32 32 33 35 36 37 38 39 40 41 42 42 42 40 38 34 30 26 22 19 15 13 13 12 13 16 19 19 20 19 17 16 15 13
10 10 10 11 11 11 11 11 10 10 9 9 10 10 10 11 10 10 10 10 10 10 10 9 8 7 7 8 9 10 11 11 11 12 12 13 13 13 14 15 16 17 19 20 21 22 23 26 28 29 31 32 33 33 33 35 35 36 37 38 40 41 41 41 41 40 38 34 29 25 21 17 13 11 10 12 15 18 19 20 20 18 16 15 13
9 10 10 10 10 10 10 10 10 10 10 10 10 10 11 11 10 10 10 10 10 10 10 10 10 10 9 9 9 10 10 11 11 12 13 13 14 14 15 15 16 17 18 19 20 21 22 24 26 28 30 32 33 33 33 34 35 35 36 37 38 39 40 40 41 41 41 38 34 28 23 19 15 11 9 11 13 16 17 19 20 20 19 16 13
8 9 9 9 9 9 9 10 10 10 10 10 11 11 11 11 11 11 11 11 11 11 11 11 12 11 11 11 11 10 11 11 12 13 13 14 14 15 15 15 15 16 17 19 20 20 21 22 24 26 29 31 33 33 33 33 34 35 35 35 36 37 38 39 40 41 41 41 38 32 26 21 17 13 10 10 11 13 15 15 17 20 21 18 14
7 8 8 8 8 9 9 10 10 11 12 12 12 12 12 12 13 13 13 14 15 15 15 15 14 14 13 13 13 13 13 13 14 14 14 14 15 15 16 16 15 16 17 18 19 20 20 21 23 25 27 29 31 33 33 33 33 34 35 35 35 36 37 38 39 40 41 42 41 38 31 25 20 15 12 11 10 11 12 13 14 17 20 19 15
6 7 7 8 8 9 9 10 11 12 13 13 13 13 13 14 14 15 16 16 16 16 16 16 17 16 16 15 15 14 14 14 14 15 15 15 15 15 16 16 16 16 17 17 18 20 21 21 22 23 25 26 28 30 32 33 33 33 34 35 35 36 36 37 38 40 40 41 42 41 37 31 24 18 14 12 11 11 11 11 11 13 16 17 15
5 5 6 7 8 9 10 10 11 12 13 14 15 15 16 16 16 16 16 15 14 14 13 14 14 15 15 15 15 15 15 14 14 14 15 15 16 16 16 17 17 17 17 17 18 19 20 21 21 22 22 24 25 27 29 31 33 33 34 34 35 36 36 37 38 39 40 41 41 42 41 37 30 23 16 13 12 11 11 11 10 9 11 13 14
3 4 4 5 7 8 8 9 10 11 12 14 15 16 17 18 18 17 16 15 14 13 12 12 12 12 13 14 15 15 15 15 16 16 16 16 16 16 16 17 17 17 17 17 18 18 19 19 20 20 21 22 23 25 27 29 31 33 34 34 34 35 35 36 37 37 39 40 41 42 42 40 36 29 21 15 13 13 11 10 9 7 6 8 10
2 2 2 3 5 5 6 7 8 9 11 13 14 15 16 17 18 18 18 17 16 15 14 13 13 13 13 14 14 14 14 15 16 16 16 17 17 16 16 16 17 17 18 18 18 18 18 18 19 20 20 21 22 24 25 27 29 31 32 34 34 35 35 35 35 37 38 39 40 41 42 42 39 34 27 18 14 14 12 10 9 7 5 4 7
1 1 1 1 1 2 3 5 7 8 10 12 13 15 16 17 18 19 19 19 18 18 16 15 14 14 15 15 16 15 15 15 15 15 16 16 17 17 16 16 16 17 17 18 18 18 18 18 18 19 20 20 21 23 24 26 27 29 30 32 34 35 35 35 35 36 37 38 40 40 41 42 40 38 32 24 16 14 13 11 8 7 4 2 3
2 2 2 2 2 3 4 6 8 10 11 13 14 16 17 18 19 19 19 20 20 19 19 18 17 17 17 17 18 17 17 17 16 16 17 17 17 17 17 17 17 17 17 17 18 19 19 18 18 19 19 20 20 21 23 24 26 27 28 30 32 34 35 36 36 36 36 37 38 39 40 41 41 39 36 30 21 15 14 12 9 6 4 2 1
3 4 4 5 6 6 7 9 10 12 13 15 16 17 18 19 19 20 20 20 20 20 20 20 19 19 18 19 19 19 19 18 18 18 18 18 18 18 18 18 18 18 18 18 18 19 20 20 19 19 20 20 20 21 22 23 24 25 26 28 29 31 33 35 36 36 36 36 37 38 38 40 41 40 38 34 26 18 14 13 10 6 4 2 0
5 5 6 7 8 9 10 12 13 14 15 16 17 17 18 19 19 20 20 20 20 19 20 20 20 20 20 19 20 21 21 21 20 19 18 18 19 19 19 19 19 19 19 19 19 19 20 21 21 21 21 21 21 21 21 22 23 24 25 27 28 29 31 33 34 36 36 36 36 36 37 38 40 40 38 36 31 23 16 14 11 7 4 3 1
7 7 8 9 10 11 12 14 15 16 17 18 18 19 19 19 19 19 20 20 20 20 20 20 21 21 21 21 21 21 22 23 22 21 20 19 19 19 20 20 20 20 20 20 20 20 20 20 21 22 22 22 21 21 22 22 22 23 24 26 26 27 28 30 32 34 36 36 35 35 36 37 38 39 39 37 33 27 20 15 12 8 5 3 2
9 9 10 11 12 13 14 15 16 17 18 18 19 20 20 19 19 19 20 20 21 21 22 22 22 22 22 23 23 23 23 23 23 23 22 21 20 19 19 20 20 20 20 20 21 21 21 20 21 21 22 22 22 22 23 23 22 22 23 24 25 26 26 28 30 32 34 35 36 35 35 36 37 38 39 37 35 31 24 17 13 10 6 3 2
10 11 11 12 13 14 15 16 16 17 17 18 18 19 19 19 19 19 20 21 21 22 22 22 22 23 23 23 24 24 24 24 24 23 23 23 21 20 20 19 20 20 20 20 21 21 21 21 21 21 22 22 23 23 23 23 23 22 22 23 24 25 25 26 28 30 31 33 35 35 35 35 36 37 38 38 36 33 28 21 14 10 8 5 3
11 12 12 13 14 14 15 16 17 17 17 17 18 18 18 19 19 19 20 21 22 22 22 22 22 22 23 23 24 25 24 24 23 23 23 22 22 22 22 21 20 20 19 20 21 22 22 21 21 21 21 21 22 23 23 23 23 23 22 22 23 24 25 25 26 27 29 31 33 35 35 36 35 35 37 38 37 34 30 24 16 10 9 7 5
12 13 13 14 14 15 15 16 16 17 17 17 18 18 19 19 20 21 21 22 22 22 22 22 22 22 22 23 23 24 23 23 22 22 22 22 22 24 24 23 23 22 20 20 21 22 22 22 22 21 21 21 22 22 22 23 23 23 23 22 22 22 23 24 24 25 27 29 31 33 34 36 36 35 35 37 37 35 32 26 19 12 8 8 8
13 14 14 15 15 15 16 16 16 17 17 17 18 19 19 20 21 22 22 22 22 22 22 22 22 22 22 22 22 22 23 23 22 22 22 22 23 24 24 23 24 24 23 22 22 22 23 24 23 22 22 22 22 22 22 22 23 23 23 22 22 21 22 23 23 24 25 26 29 31 33 34 35 35 35 36 37 37 33 28 21 14 9 8 8
14 14 15 15 15 15 16 16 16 17 17 18 19 19 20 21 21 22 22 22 22 21 21 21 22 22 23 23 23 23 23 23 22 22 22 21 22 22 22 23 24 25 24 23 22 22 22 24 24 24 23 23 22 22 22 22 22 23 24 23 22 22 21 21 22 23 23 24 26 28 31 32 34 35 34 34 36 37 35 30 23 16 11 8 8
14 15 15 15 15 15 16 16 16 17 17 18 19 20 21 21 21 21 22 22 21 21 21 21 22 23 23 24 23 23 23 22 22 22 22 21 21 21 20 21 22 24 24 24 23 21 21 22 23 24 24 23 22 22 23 23 22 22 23 23 24 23 22 21 21 22 22 23 24 26 28 30 32 33 34 34 34 36 36 32 24 17 13 10 9
15 15 16 16 16 16 17 17 17 18 18 19 20 21 21 21 21 21 21 21 21 21 21 22 22 23 24 24 24 23 22 22 22 22 22 22 22 21 20 20 21 23 25 26 26 24 22 21 21 23 24 23 22 22 23 23 23 22 22 22 23 23 23 21 21 21 21 21 22 23 25 28 29 31 33 33 32 33 35 33 26 19 14 12 10
16 16 16 17 17 17 18 18 18 19 20 20 21 21 21 21 21 21 21 22 22 22 22 23 23 23 23 24 24 23 22 22 22 22 22 22 23 23 22 22 22 23 26 28 29 29 27 24 22 22 22 23 23 23 23 23 23 22 22 21 21 22 23 23 22 21 20 20 20 21 22 25 26 28 30 32 31 31 32 33 29 20 15 13 12
17 17 17 17 18 18 18 19 19 20 20 20 21 21 21 20 21 21 22 22 23 23 23 23 23 23 22 22 22 22 22 22 22 23 23 24 24 25 25 25 24 24 25 27 29 31 31 29 26 23 22 23 24 25 24 23 23 23 24 23 22 21 22 23 23 21 20 20 20 19 20 21 23 25 27 29 29 29 29 31 30 23 17 13 12
18 18 18 18 18 19 19 19 20 20 21 21 21 21 20 20 21 21 22 23 23 24 23 23 23 22 22 21 21 21 21 22 23 24 24 25 26 26 26 26 26 25 24 25 27 29 31 31 29 26 24 23 24 25 25 24 24 24 24 24 23 21 21 21 22 22 21 20 19 19 19 19 20 22 24 25 27 27 27 27 28 26 20 15 13
19 19 19 19 19 20 20 20 20 20 20 21 21 21 21 21 21 22 22 22 23 23 23 23 22 21 21 21 21 22 23 23 24 24 24 25 25 26 26 26 26 25 24 24 25 26 29 30 30 29 27 25 25 25 25 25 25 24 24 23 23 21 21 21 21 21 21 21 20 19 19 18 18 20 21 22 24 25 25 24 25 25 24 20 15
20 20 20 20 20 20 20 20 20 20 20 20 20 21 21 21 21 21 21 21 22 22 22 22 22 21 21 22 22 23 24 25 25 26 25 25 25 25 25 26 26 25 24 24 24 24 26 27 29 30 29 28 26 25 26 27 27 25 24 23 23 22 22 22 22 21 21 21 20 19 18 18 17 17 18 20 21 22 23 22 22 22 23 22 18
21 21 21 21 21 21 20 20 20 20 19 19 20 20 21 21 21 21 21 21 22 22 21 21 21 21 22 23 24 25 26 26 27 27 26 26 25 25 25 25 26 25 25 25 24 25 25 26 27 28 30 30 28 27 26 27 28 27 25 24 23 23 23 22 22 21 22 22 21 19 18 17 16 16 16 17 18 19 20 20 20 19 20 20 19
21 21 21 22 22 22 21 20 20 20 19 19 20 20 20 19 20 21 21 22 22 22 21 21 21 21 22 24 25 26 27 27 27 27 27 26 26 26 25 26 26 26 26 27 27 26 27 27 27 28 29 30 30 29 28 27 28 28 27 25 23 23 23 22 22 21 21 21 20 20 18 17 16 15 14 14 16 16 16 17 18 18 17 17 18
Wind_Direction
353 349 346 344 339 334 327 318 314 313 313 313 308 304 304 303 301 302 304 297 295 306 308 309 322 322 303 285 270 265 277 287 291 295 298 312 324 328 332 336 337 335 333 333 331 328 324 321 319 318 318 317 316 315 314 312 310 309 307 305 303 300 297 295 292 291 290 288 288 288 287 287 287 287 287 288 285 276 265 258 250 242 240 238 235
357 355 347 338 330 324 317 311 308 304 303 304 306 305 304 302 298 298 299 298 301 305 301 303 314 303 256 245 236 237 266 274 280 301 316 327 331 333 339 340 338 336 334 333 330 327 323 321 320 320 320 319 318 316 315 313 312 310 308 306 303 301 298 295 292 291 290 289 289 288 289 289 288 288 288 288 285 275 262 255 249 242 239 238 237
1 359 349 338 331 324 319 315 309 303 296 295 299 303 303 302 295 293 295 301 307 305 297 303 311 243 208 230 228 228 272 278 292 315 324 330 334 337 339 337 336 335 332 331 329 326 324 324 324 324 323 322 320 318 316 315 313 311 309 307 304 301 298 296 294 293 292 292 292 291 291 291 290 290 289 287 282 271 258 252 248 241 238 238 238
2 359 350 341 335 329 326 324 317 309 300 296 300 302 303 303 298 295 297 302 305 299 297 307 308 171 179 201 203 242 288 294 309 321 335 339 336 334 334 334 337 335 331 330 330 328 328 329 328 327 325 323 321 320 319 317 315 313 311 308 306 303 300 298 296 295 294 293 292 291 289 289 289 289 287 282 274 264 256 252 248 242 236 235 236
3 360 354 346 340 334 333 334 326 318 312 309 308 305 305 309 308 307 304 303 306 299 298 310 142 148 144 146 165 271 287 301 327 340 342 339 334 333 336 336 335 334 332 332 332 332 332 332 331 329 327 325 324 323 322 321 319 318 316 314 311 308 306 305 303 301 298 294 291 287 284 283 283 284 282 277 269 263 258 253 248 243 237 234 234
3 1 357 351 345 339 340 342 335 328 326 321 315 311 312 317 323 330 324 324 340 341 10 111 123 119 108 123 143 322 308 329 345 346 341 337 337 338 336 333 331 333 335 335 336 336 336 335 332 330 329 328 327 327 326 327 328 328 327 324 320 318 316 315 313 310 305 301 295 290 286 285 286 285 283 280 275 269 263 256 249 244 240 235 233
1 1 358 353 348 345 346 348 344 340 339 334 327 325 331 344 16 44 38 44 67 87 99 106 112 107 104 95 350 350 340 342 344 344 343 343 344 339 331 329 332 337 340 340 340 340 338 335 333 332 331 331 332 332 333 335 339 342 345 343 338 334 331 329 326 323 319 314 308 302 299 299 300 298 293 291 286 280 273 265 254 246 242 238 234
357 358 357 355 350 348 352 357 356 357 359 358 355 359 15 50 78 91 90 85 90 94 94 100 106 101 86 18 357 357 348 343 346 348 347 344 342 333 328 332 340 344 345 343 342 340 337 335 334 335 336 336 336 337 339 343 349 353 357 359 359 356 353 351 348 344 341 336 327 315 309 309 310 310 306 302 298 292 285 274 260 252 248 243 237
355 356 357 357 356 356 3 12 14 19 25 30 34 41 55 71 80 85 86 84 87 86 84 93 99 68 44 17 1 1 352 346 349 349 343 340 337 331 333 343 349 349 346 343 342 339 337 337 338 340 340 339 339 340 343 349 354 356 359 3 7 8 8 8 6 1 358 354 345 333 321 316 314 314 313 310 305 299 292 282 267 258 255 248 240
355 356 0 6 9 9 17 25 30 37 46 51 55 60 69 74 74 75 76 75 74 69 69 76 75 50 31 6 357 1 351 345 347 346 340 338 335 335 345 352 352 349 345 342 341 340 340 341 342 344 343 342 343 345 347 351 354 356 358 0 4 7 8 9 7 3 0 357 353 346 337 328 322 319 318 316 310 303 294 287 279 267 258 251 242
357 360 8 21 25 25 32 38 42 49 58 64 67 70 74 75 73 69 65 63 57 49 46 45 42 35 15 351 349 351 343 344 348 346 342 339 337 343 354 355 352 349 345 342 341 342 344 345 347 348 346 346 348 350 350 352 354 356 357 358 360 2 3 3 1 358 355 353 351 348 344 340 333 327 324 320 314 307 296 289 287 281 268 254 245
7 12 25 37 35 35 44 49 52 57 64 70 72 73 72 70 66 60 54 50 44 42 40 30 26 21 357 341 342 340 338 347 352 349 344 339 339 350 357 354 350 348 344 342 343 345 347 349 351 350 349 351 354 354 353 354 355 357 359 0 0 1 1 360 358 355 352 350 349 348 346 344 339 333 330 325 317 309 300 292 287 283 276 263 250
20 29 41 47 40 39 48 56 61 64 68 70 69 68 66 62 57 50 43 40 36 40 40 28 20 8 345 338 338 332 335 349 355 351 343 337 340 351 357 353 349 346 344 344 346 349 351 352 354 353 353 356 358 356 355 356 356 358 1 3 3 3 2 0 359 358 356 354 352 351 349 348 346 341 337 332 324 314 303 297 291 287 282 272 259
29 40 50 55 50 45 48 57 65 67 66 65 62 59 55 51 49 43 39 35 29 30 34 29 16 356 339 335 332 325 333 350 356 352 343 337 342 351 355 351 345 343 345 348 350 352 353 355 357 356 357 1 2 359 357 358 358 359 1 2 2 2 1 1 2 2 2 1 359 358 358 358 357 354 349 344 338 329 315 303 296 292 288 280 267
32 42 53 60 60 56 53 55 60 62 61 59 55 48 41 38 38 38 38 37 30 25 28 26 6 345 337 334 330 325 332 349 357 353 345 341 344 348 350 347 342 343 348 351 353 354 355 357 359 359 0 4 6 3 360 359 360 0 1 1 1 0 0 2 4 5 5 6 6 7 9 10 8 4 0 356 351 346 337 325 310 297 288 279 270
35 42 51 58 61 60 59 59 58 57 58 55 46 37 31 28 28 27 27 30 32 28 26 21 5 351 345 338 331 324 327 343 354 354 350 347 345 344 344 342 341 346 351 353 355 356 356 358 1 1 2 6 9 8 5 2 1 2 2 1 0 1 3 4 4 5 7 7 9 12 15 15 11 7 3 359 355 351 346 340 331 318 300 281 269
40 45 53 59 62 61 60 61 62 63 63 54 43 35 31 30 30 26 22 23 25 26 24 16 2 355 349 339 330 322 321 333 347 352 352 351 346 342 341 339 342 348 352 354 356 356 357 359 3 3 3 7 10 11 11 9 5 4 4 2 1 3 5 6 6 6 6 6 7 10 13 13 11 8 4 360 356 352 348 342 336 332 322 305 283
42 48 56 63 68 69 66 64 64 65 61 50 42 38 35 33 31 28 24 22 18 15 12 7 359 357 354 344 332 323 319 326 337 344 349 352 350 343 339 339 342 347 352 355 357 357 357 359 2 4 3 6 10 12 14 15 13 10 8 5 3 3 4 5 6 7 6 6 7 8 10 11 11 11 10 6 2 359 355 348 341 335 329 323 313
45 50 55 62 68 69 68 66 64 59 50 41 39 38 35 32 28 25 22 20 17 10 4 7 3 357 352 345 336 330 326 326 329 333 338 348 352 348 341 340 341 344 350 355 357 358 358 359 2 4 4 5 9 11 13 15 17 17 15 11 8 6 4 3 5 6 7 8 8 8 9 10 12 15 15 12 8 5 2 356 350 343 333 325 318
47 50 52 57 62 64 64 63 59 51 41 36 37 37 33 30 26 23 20 17 16 9 4 8 4 352 348 345 341 338 333 328 326 325 327 336 347 350 346 340 337 340 347 354 356 357 358 359 1 4 5 5 6 9 11 13 16 18 19 17 15 11 7 4 4 5 7 8 8 7 9 11 13 16 18 17 16 15 13 9 3 356 346 332 318
48 49 49 52 57 62 63 59 52 43 35 33 33 32 29 26 22 22 20 18 17 10 3 5 1 351 346 345 341 337 334 331 328 324 321 325 337 346 346 340 335 338 344 351 354 355 358 359 360 3 7 6 5 7 8 10 13 16 18 19 19 17 14 9 6 4 5 7 7 7 10 12 13 16 22 26 27 24 22 21 18 11 0 346 328
52 52 51 51 54 59 62 59 52 41 30 25 24 21 19 17 14 13 14 13 13 9 1 358 357 350 345 342 339 336 335 334 329 323 320 323 327 335 339 337 336 339 342 346 351 354 356 359 359 2 7 8 6 5 5 6 10 13 15 17 19 19 18 15 12 8 5 5 6 7 9 10 11 18 27 31 27 21 19 20 20 16 9 359 346
57 57 55 54 53 56 58 57 55 49 38 30 26 21 19 17 13 10 7 5 5 6 360 355 354 349 344 341 339 337 336 333 327 324 324 325 324 325 328 331 336 341 342 343 348 351 354 358 358 1 6 9 8 6 4 3 6 9 12 14 16 18 18 18 16 14 9 6 4 5 7 8 9 16 26 25 18 15 14 16 15 15 13 7 359
58 58 59 58 56 55 56 56 54 51 45 39 34 30 28 24 19 13 8 3 3 4 358 352 352 352 346 341 336 334 332 330 329 329 328 326 324 323 321 323 331 339 343 343 345 347 351 356 357 359 5 8 8 8 6 4 3 6 8 11 13 15 16 17 17 16 14 11 6 3 3 5 6 9 16 15 12 14 15 16 16 15 14 11 7
55 56 58 59 58 56 56 55 54 50 45 40 36 32 29 25 20 15 8 4 5 4 357 351 352 354 349 340 333 329 327 328 332 333 331 329 328 325 320 319 325 333 339 342 344 344 347 352 355 359 4 8 8 7 8 7 5 4 5 8 10 11 13 14 15 16 16 14 10 5 1 1 1 360 359 1 8 15 18 20 21 20 17 15 12
53 55 57 57 57 56 53 52 52 50 46 40 35 31 26 21 17 14 7 3 5 4 359 354 352 352 347 340 334 331 330 331 333 332 332 332 330 326 322 321 323 326 331 337 341 342 343 348 352 357 3 6 7 6 7 9 8 6 6 6 8 9 10 11 13 14 15 15 13 10 4 359 356 354 348 346 356 10 17 19 21 20 18 18 17
50 54 58 59 59 58 55 53 52 50 48 44 37 31 25 18 14 12 7 4 3 1 357 353 352 350 347 341 338 336 336 335 333 330 330 330 327 325 324 324 324 322 324 330 336 339 341 345 350 355 0 3 5 5 6 8 9 9 8 7 8 8 9 10 11 12 14 15 14 12 9 3 356 352 347 340 337 346 0 8 12 15 16 17 20
46 51 58 65 68 67 62 58 54 50 47 43 37 31 25 18 14 10 6 3 1 356 352 348 347 346 343 339 337 337 336 334 330 326 325 325 324 325 326 326 325 323 322 325 329 334 339 343 347 351 356 359 1 2 4 6 8 10 10 9 9 9 9 9 10 10 12 14 14 13 11 8 2 355 349 345 334 324 327 342 356 7 12 15 20
38 48 60 71 77 76 69 61 54 47 40 36 31 25 20 16 11 7 4 1 356 350 346 343 340 336 333 332 333 333 333 332 330 326 324 323 324 326 326 325 324 324 323 323 324 328 334 340 343 345 350 353 356 357 0 3 6 9 10 10 11 10 9 9 10 9 10 12 13 13 12 10 7 1 353 349 347 334 319 319 332 350 6 14 22
27 45 67 80 82 78 68 57 47 38 30 25 21 17 13 10 6 2 358 354 349 345 343 341 337 332 328 326 327 328 329 330 331 331 329 327 325 326 325 324 323 322 322 322 322 323 328 332 336 340 343 347 350 352 356 0 3 6 8 10 11 11 11 10 10 10 10 11 12 13 13 11 9 7 1 353 352 350 339 324 324 336 354 10 22
4 32 77 89 83 71 56 42 32 24 18 14 10 6 3 0 358 355 351 347 345 342 340 338 337 335 332 328 326 325 326 327 328 329 329 328 326 325 324 323 321 320 320 320 320 321 322 324 328 333 338 342 345 348 351 355 359 2 4 7 10 11 11 11 11 11 11 10 11 12 13 12 11 10 8 2 355 354 352 338 328 335 350 6 18
274 271 140 115 85 46 20 7 359 357 357 356 353 351 350 349 348 346 344 342 340 340 338 336 335 335 333 332 331 330 328 326 325 324 325 325 325 324 324 323 321 319 318 319 319 319 319 320 322 327 333 337 341 344 347 350 353 357 360 3 6 8 9 11 12 12 12 11 10 10 12 13 13 12 11 8 2 357 356 348 333 333 346 1 21
242 236 229 238 265 295 316 323 328 331 334 336 336 337 338 340 340 339 338 336 336 336 336 335 333 332 332 332 333 333 331 328 325 322 321 320 321 322 322 322 321 320 318 317 317 317 318 319 319 322 326 331 335 340 343 345 348 351 355 359 2 5 7 9 10 11 12 13 11 10 10 13 14 14 12 11 8 2 358 354 340 329 336 344 39
243 240 244 254 268 282 293 301 308 313 318 322 326 328 331 333 333 332 331 331 331 333 333 332 331 329 329 331 332 332 331 329 326 324 321 319 318 319 319 320 320 320 319 317 317 317 318 318 319 321 322 324 329 335 339 341 342 346 351 355 358 1 3 6 8 9 11 13 12 10 10 11 14 15 14 12 10 7 2 359 349 331 328 338 190
265 260 260 264 272 282 288 294 300 306 311 316 320 323 326 327 328 327 327 327 327 328 329 328 326 325 326 328 329 329 328 328 327 325 322 318 316 316 316 318 318 319 319 319 319 318 318 319 320 321 320 320 324 329 332 334 337 341 346 350 353 357 0 3 4 6 10 11 11 11 10 11 13 16 15 14 12 10 6 3 359 346 331 336 331
284 281 278 277 280 285 290 295 300 305 310 313 316 319 321 322 323 323 323 324 324 325 326 326 324 324 324 325 325 326 327 326 325 324 322 319 317 315 314 315 316 317 319 320 320 319 319 320 320 319 318 319 322 324 325 327 332 338 342 345 349 353 357 359 1 3 7 9 10 10 11 12 13 14 16 15 13 11 8 5 4 359 346 337 342
291 290 289 288 288 290 293 296 300 304 308 312 314 316 317 319 320 320 321 322 322 323 324 324 324 324 324 323 322 324 325 324 323 322 322 320 319 316 314 313 314 315 316 316 316 317 318 319 318 317 318 321 322 321 319 320 326 333 337 340 343 349 354 356 358 0 4 6 7 8 10 13 14 14 15 15 14 12 9 6 6 5 359 347 348
294 295 295 295 295 296 297 298 301 304 307 310 311 313 314 316 318 319 320 321 321 322 322 323 323 323 323 321 320 321 323 323 321 321 321 320 319 319 318 315 314 314 314 313 313 313 315 317 318 318 320 321 320 317 317 318 322 327 331 335 338 344 349 352 355 357 360 2 4 6 8 11 14 15 14 15 15 14 10 7 7 10 9 3 360
298 298 299 300 300 301 301 302 304 307 308 309 310 311 313 315 317 318 319 320 321 321 322 323 323 324 322 322 322 322 322 322 322 322 322 321 320 320 321 319 316 315 314 312 311 311 313 314 316 317 318 317 315 315 316 318 319 321 325 329 333 338 343 348 351 354 356 358 1 5 7 8 11 15 15 14 15 15 13 9 7 12 17 15 13
300 301 301 302 302 302 302 303 305 307 308 310 311 313 315 317 317 318 319 320 321 322 323 324 325 325 325 325 325 324 324 324 324 324 323 321 320 320 321 320 318 317 316 314 313 313 312 312 313 314 315 314 313 314 315 317 318 319 320 324 328 332 337 341 345 349 352 354 357 2 5 6 8 12 15 15 15 15 15 12 9 10 18 19 20
299 301 301 302 303 303 304 304 305 307 309 310 312 314 316 316 317 318 320 321 322 323 324 324 325 325 325 325 325 324 324 325 326 326 325 324 322 323 324 322 320 319 320 320 318 315 314 313 312 313 314 314 313 315 316 317 318 318 319 321 324 327 330 335 339 342 347 351 354 358 2 5 7 8 12 15 16 15 16 15 13 13 19 23 23
299 300 300 301 302 303 303 304 305 307 309 310 311 312 313 314 316 318 319 320 321 322 322 323 322 322 323 323 323 323 324 325 326 326 326 326 325 326 326 325 323 322 322 321 320 317 314 313 313 313 313 313 314 316 316 316 316 318 318 320 322 324 326 328 331 335 341 347 352 354 358 2 6 7 9 13 16 16 16 17 18 20 27 33 31
297 297 297 299 300 300 300 302 304 306 308 308 309 311 313 314 316 318 318 319 320 320 320 320 320 320 321 321 321 321 322 323 324 325 326 326 327 328 329 327 324 323 322 321 321 319 315 313 311 311 311 313 315 316 316 316 316 317 318 319 320 322 323 324 325 328 334 341 348 351 353 358 4 6 7 11 16 17 18 20 23 27 35 42 41
294 295 295 297 298 298 300 302 304 306 308 308 309 311 313 314 316 317 317 318 318 318 317 317 317 318 319 319 319 320 320 321 322 323 324 325 325 327 328 328 326 324 323 321 321 321 320 317 314 311 311 314 315 313 313 314 316 317 318 318 318 320 321 321 322 323 328 335 342 347 349 353 359 4 6 8 13 17 20 22 25 31 38 42 43
292 293 294 296 297 298 300 303 306 308 308 309 310 312 313 314 315 316 317 317 316 315 315 314 315 316 317 317 317 318 320 320 321 321 321 322 321 321 322 324 325 325 323 321 320 319 320 320 319 316 315 314 312 310 309 310 313 315 316 316 316 317 319 320 321 323 325 328 333 340 345 349 354 360 4 7 10 15 20 23 26 29 35 37 37
292 293 293 295 296 298 301 304 307 307 308 309 311 312 312 313 314 314 315 315 315 315 315 315 315 315 316 315 315 317 318 319 319 319 319 319 318 318 318 319 320 321 320 318 316 315 316 318 320 321 319 315 312 311 312 314 314 313 313 313 313 315 316 318 320 322 323 324 327 332 339 344 348 353 0 5 8 11 17 23 25 25 28 33 34
293 293 294 296 297 299 302 305 307 307 309 310 311 311 311 312 313 313 314 315 315 316 316 316 316 316 317 317 316 317 318 318 318 318 318 317 318 318 317 317 318 318 317 315 313 312 313 315 318 319 319 317 314 313 315 316 314 313 312 312 313 313 314 315 317 319 321 322 324 326 331 337 343 347 353 1 7 9 13 20 24 23 21 25 32
294 295 295 296 298 300 302 305 306 306 307 308 308 309 310 311 312 313 314 315 316 317 316 317 317 317 318 319 319 319 320 320 320 319 319 319 319 319 319 318 318 319 318 316 314 312 312 314 316 317 318 318 316 314 314 313 312 311 312 313 314 314 313 312 314 316 319 320 322 323 326 330 336 342 346 353 2 7 9 14 21 23 20 18 21
294 294 295 297 298 299 301 303 303 303 304 305 305 307 308 309 311 313 315 316 316 316 316 316 317 317 318 320 321 321 321 321 321 320 321 321 321 321 321 321 320 320 319 318 317 315 314 314 315 316 317 318 318 317 315 313 312 312 314 314 315 315 313 311 312 314 317 317 318 320 322 323 328 335 339 344 353 2 6 8 13 20 22 19 16
292 294 295 296 297 298 300 301 302 301 301 302 304 305 307 308 310 313 315 315 315 315 314 314 315 317 318 319 320 320 320 320 320 320 321 322 323 323 323 322 322 321 321 320 319 318 317 316 315 315 316 317 317 317 316 314 313 313 315 316 315 313 311 309 309 312 313 312 312 313 316 317 320 326 331 334 341 351 360 3 6 13 20 21 17
291 293 293 294 295 297 299 299 300 299 299 301 303 304 306 309 311 313 315 314 313 313 313 313 314 315 317 318 318 319 319 319 319 319 320 321 322 323 323 322 322 321 321 320 320 318 317 316 315 315 314 314 314 314 314 313 311 312 313 315 315 312 310 308 307 307 307 307 306 306 308 310 313 316 321 325 329 336 346 355 359 4 12 18 18
Height
5877 5876 5875 5873 5873 5872 5870 5869 5868 5867 5866 5865 5864 5863 5863 5863 5863 5862 5861 5860 5860 5859 5858 5857 5856 5856 5855 5855 5855 5854 5854 5854 5853 5853 5852 5851 5850 5849 5848 5847 5846 5845 5844 5843 5841 5840 5839 5837 5836 5834 5832 5829 5827 5824 5822 5819 5816 5813 5810 5806 5803 5800 5797 5793 5790 5786 5782 5779 5776 5774 5773 5773 5774 5774 5773 5771 5770 5769 5768 5768 5770 5771 5772 5772 5771
5877 5875 5874 5872 5871 5870 5869 5868 5867 5866 5865 5864 5863 5862 5861 5861 5860 5860 5859 5858 5857 5857 5856 5856 5856 5855 5854 5854 5854 5854 5854 5854 5853 5853 5852 5851 5850 5849 5847 5846 5846 5845 5844 5842 5841 5839 5838 5836 5834 5832 5830 5827 5825 5822 5819 5815 5812 5808 5805 5801 5796 5792 5788 5785 5781 5778 5774 5771 5768 5766 5764 5763 5763 5764 5763 5762 5761 5761 5760 5760 5761 5763 5764 5765 5765
5876 5875 5873 5871 5870 5869 5868 5867 5866 5865 5864 5863 5861 5860 5859 5859 5858 5857 5857 5856 5855 5854 5854 5854 5854 5854 5854 5854 5854 5854 5854 5853 5853 5852 5851 5851 5850 5848 5847 5846 5846 5845 5843 5842 5840 5838 5837 5835 5833 5830 5828 5825 5822 5819 5815 5812 5808 5803 5799 5794 5789 5784 5780 5775 5771 5768 5764 5761 5758 5756 5754 5753 5752 5752 5753 5753 5751 5751 5751 5752 5753 5754 5756 5757 5758
5876 5874 5872 5870 5868 5867 5866 5865 5864 5863 5862 5860 5859 5858 5857 5856 5856 5855 5855 5855 5854 5853 5852 5852 5853 5853 5853 5853 5853 5853 5853 5853 5852 5852 5851 5850 5849 5848 5847 5846 5845 5844 5843 5841 5840 5838 5836 5833 5831 5828 5825 5822 5819 5816 5811 5807 5803 5798 5792 5787 5781 5775 5769 5764 5760 5757 5754 5751 5749 5747 5745 5743 5742 5742 5742 5743 5742 5742 5743 5744 5745 5747 5748 5749 5750
5875 5873 5871 5869 5867 5866 5865 5863 5862 5861 5859 5858 5857 5855 5855 5854 5853 5853 5853 5853 5853 5852 5851 5851 5852 5853 5853 5853 5853 5853 5852 5852 5852 5851 5850 5850 5849 5848 5847 5846 5845 5844 5842 5841 5839 5837 5834 5832 5829 5826 5823 5820 5816 5812 5808 5803 5797 5791 5784 5777 5770 5763 5758 5753 5749 5746 5744 5742 5740 5739 5737 5736 5735 5734 5734 5734 5735 5735 5735 5737 5738 5739 5741 5742 5744
5875 5873 5870 5868 5866 5865 5864 5862 5860 5859 5858 5856 5855 5853 5853 5852 5852 5852 5852 5852 5851 5851 5851 5852 5852 5853 5853 5852 5852 5852 5852 5852 5851 5851 5850 5850 5849 5847 5846 5846 5845 5843 5841 5840 5838 5835 5833 5830 5827 5824 5821 5817 5813 5808 5803 5797 5791 5784 5776 5768 5760 5754 5749 5745 5742 5739 5737 5735 5733 5732 5732 5731 5731 5730 5729 5729 5729 5729 5729 5729 5731 5732 5733 5735 5738
5874 5872 5869 5867 5865 5864 5863 5861 5859 5858 5856 5855 5853 5852 5852 5852 5852 5852 5851 5851 5851 5851 5851 5852 5852 5852 5852 5852 5852 5852 5852 5851 5851 5850 5850 5849 5848 5847 5846 5845 5844 5842 5840 5838 5836 5833 5831 5828 5826 5822 5819 5814 5810 5804 5798 5792 5786 5779 5772 5763 5755 5749 5744 5740 5738 5736 5733 5732 5730 5729 5729 5729 5728 5728 5727 5726 5725 5724 5724 5724 5725 5726 5728 5730 5732
5873 5870 5868 5866 5865 5863 5862 5860 5859 5857 5856 5854 5853 5852 5851 5852 5852 5852 5852 5852 5852 5852 5852 5852 5852 5853 5853 5852 5852 5852 5851 5851 5851 5850 5849 5848 5847 5847 5846 5844 5843 5841 5839 5837 5834 5832 5829 5827 5824 5821 5816 5812 5806 5800 5794 5789 5783 5777 5770 5762 5755 5748 5744 5740 5737 5735 5732 5731 5729 5729 5728 5727 5727 5726 5725 5723 5722 5721 5720 5720 5721 5722 5723 5725 5727
5872 5870 5867 5866 5864 5863 5862 5860 5858 5857 5855 5855 5853 5852 5852 5852 5852 5852 5853 5853 5852 5852 5853 5853 5853 5853 5853 5852 5852 5852 5851 5851 5850 5849 5848 5848 5847 5846 5845 5844 5842 5840 5837 5835 5833 5831 5828 5825 5822 5818 5814 5809 5803 5797 5792 5787 5781 5775 5769 5763 5756 5751 5746 5741 5738 5735 5733 5731 5729 5728 5727 5726 5725 5724 5723 5722 5720 5719 5719 5718 5719 5719 5720 5721 5722
5871 5869 5866 5865 5864 5863 5862 5860 5859 5857 5856 5855 5854 5854 5853 5853 5853 5853 5854 5854 5854 5853 5853 5853 5853 5853 5853 5852 5852 5852 5851 5851 5850 5849 5848 5847 5847 5846 5844 5843 5841 5839 5837 5834 5832 5829 5827 5824 5820 5816 5811 5806 5800 5794 5789 5785 5779 5774 5768 5763 5758 5752 5748 5743 5740 5737 5734 5732 5730 5728 5727 5725 5724 5723 5722 5720 5719 5718 5717 5717 5717 5717 5717 5718 5719
5871 5868 5866 5865 5864 5863 5862 5861 5859 5858 5857 5856 5856 5855 5855 5855 5855 5855 5855 5855 5855 5854 5853 5853 5853 5853 5853 5852 5852 5852 5851 5851 5850 5849 5847 5847 5846 5845 5843 5842 5840 5838 5836 5834 5831 5829 5826 5822 5818 5814 5809 5803 5796 5791 5787 5782 5778 5773 5768 5763 5758 5753 5749 5745 5741 5738 5736 5733 5731 5729 5727 5725 5724 5723 5721 5720 5719 5718 5717 5716 5716 5716 5716 5717 5717
5871 5868 5866 5865 5864 5863 5862 5861 5860 5860 5859 5858 5858 5857 5857 5857 5856 5856 5856 5856 5855 5854 5854 5853 5853 5853 5853 5853 5852 5852 5851 5850 5849 5848 5847 5846 5845 5844 5843 5841 5839 5838 5836 5833 5831 5828 5824 5821 5817 5812 5807 5801 5794 5789 5785 5781 5776 5772 5767 5762 5758 5753 5749 5745 5742 5739 5736 5734 5731 5729 5728 5726 5724 5723 5721 5720 5718 5717 5716 5716 5715 5715 5715 5716 5716
5871 5869 5867 5865 5865 5864 5863 5862 5861 5861 5860 5860 5859 5858 5858 5857 5857 5857 5857 5856 5855 5855 5854 5854 5854 5853 5853 5853 5852 5852 5851 5850 5849 5848 5847 5846 5844 5843 5842 5841 5839 5837 5835 5833 5830 5827 5823 5820 5816 5811 5806 5799 5792 5788 5784 5780 5775 5771 5766 5762 5757 5753 5749 5746 5743 5740 5737 5734 5732 5729 5727 5726 5724 5722 5721 5719 5718 5717 5716 5715 5714 5714 5713 5714 5714
5872 5869 5867 5866 5866 5865 5864 5863 5862 5862 5861 5861 5860 5859 5859 5858 5858 5857 5857 5856 5856 5855 5855 5854 5854 5854 5853 5853 5852 5852 5851 5850 5849 5848 5846 5845 5844 5843 5842 5840 5839 5837 5835 5832 5829 5826 5822 5819 5814 5810 5805 5798 5792 5787 5783 5779 5775 5770 5766 5761 5757 5754 5750 5746 5743 5740 5737 5735 5732 5730 5727 5725 5724 5722 5720 5719 5718 5716 5715 5714 5713 5712 5712 5712 5712
5872 5870 5868 5867 5867 5866 5865 5864 5864 5863 5862 5861 5861 5860 5860 5859 5858 5858 5857 5857 5856 5855 5855 5854 5854 5854 5853 5853 5852 5852 5851 5850 5848 5847 5846 5845 5843 5842 5841 5840 5839 5837 5834 5832 5828 5825 5821 5818 5814 5809 5805 5799 5792 5787 5783 5779 5774 5770 5765 5761 5757 5754 5750 5747 5743 5741 5738 5735 5732 5730 5727 5725 5723 5722 5720 5719 5717 5716 5714 5713 5712 5711 5710 5710 5710
5872 5870 5868 5867 5867 5867 5866 5865 5865 5864 5863 5862 5862 5861 5860 5860 5859 5858 5857 5857 5856 5855 5855 5855 5854 5854 5853 5852 5852 5851 5850 5849 5848 5847 5846 5844 5843 5842 5841 5840 5838 5836 5834 5831 5828 5824 5821 5817 5813 5809 5804 5799 5793 5788 5783 5778 5774 5770 5766 5762 5758 5754 5751 5747 5744 5741 5738 5735 5732 5730 5728 5726 5724 5722 5720 5718 5717 5715 5714 5713 5711 5710 5709 5708 5709
5872 5870 5869 5868 5868 5867 5867 5866 5865 5865 5864 5863 5863 5862 5861 5860 5860 5859 5858 5857 5856 5856 5855 5855 5854 5854 5853 5852 5851 5851 5850 5849 5848 5847 5846 5844 5843 5842 5840 5839 5837 5835 5833 5830 5827 5824 5820 5816 5812 5808 5804 5800 5794 5789 5784 5779 5775 5770 5766 5762 5758 5755 5751 5747 5744 5741 5738 5735 5732 5730 5728 5726 5724 5722 5720 5718 5717 5715 5714 5712 5711 5709 5708 5707 5707
5873 5871 5869 5869 5868 5868 5867 5867 5866 5865 5865 5864 5863 5862 5861 5860 5860 5859 5858 5857 5857 5856 5856 5855 5854 5854 5853 5852 5851 5850 5849 5848 5847 5846 5845 5844 5843 5841 5840 5838 5836 5834 5832 5829 5826 5823 5819 5815 5811 5808 5804 5800 5795 5791 5786 5780 5776 5771 5767 5763 5759 5755 5751 5748 5744 5741 5738 5735 5733 5730 5728 5726 5724 5722 5720 5718 5716 5715 5713 5712 5710 5709 5707 5706 5706
5873 5871 5870 5869 5868 5868 5867 5867 5866 5865 5865 5864 5863 5862 5861 5861 5860 5859 5858 5858 5857 5857 5856 5856 5855 5854 5853 5852 5851 5850 5849 5848 5847 5846 5845 5843 5842 5841 5839 5837 5835 5833 5831 5829 5826 5822 5819 5815 5811 5807 5804 5800 5796 5792 5787 5783 5778 5773 5768 5764 5760 5756 5752 5749 5745 5742 5739 5736 5733 5731 5729 5726 5724 5722 5721 5719 5717 5715 5713 5711 5709 5708 5707 5705 5705
5874 5872 5870 5869 5868 5868 5867 5867 5866 5866 5865 5864 5864 5863 5862 5861 5860 5860 5859 5858 5857 5857 5856 5856 5855 5854 5853 5852 5851 5849 5848 5847 5846 5845 5844 5843 5842 5840 5838 5836 5835 5833 5831 5828 5825 5822 5819 5815 5811 5807 5804 5800 5797 5792 5788 5784 5780 5775 5770 5766 5761 5757 5753 5750 5746 5743 5739 5737 5734 5732 5729 5727 5725 5723 5721 5719 5717 5715 5713 5711 5709 5707 5706 5705 5704
5874 5872 5871 5870 5869 5868 5868 5867 5867 5866 5865 5865 5864 5863 5863 5862 5861 5861 5860 5859 5858 5857 5856 5855 5854 5853 5852 5851 5850 5849 5848 5846 5845 5844 5843 5842 5841 5839 5837 5836 5834 5832 5830 5828 5825 5822 5818 5815 5812 5808 5804 5800 5797 5793 5789 5785 5781 5777 5772 5768 5763 5759 5755 5751 5747 5744 5741 5738 5735 5733 5730 5728 5726 5724 5722 5720 5718 5716 5713 5711 5709 5707 5705 5704 5703
5875 5873 5872 5871 5870 5869 5869 5868 5868 5867 5866 5866 5865 5864 5863 5863 5862 5861 5860 5859 5858 5857 5856 5855 5854 5853 5852 5851 5849 5848 5847 5845 5844 5843 5842 5841 5839 5838 5837 5835 5833 5831 5829 5827 5824 5821 5818 5815 5812 5808 5804 5800 5797 5793 5790 5786 5782 5778 5774 5770 5765 5761 5757 5753 5749 5745 5742 5739 5736 5733 5731 5729 5727 5725 5723 5721 5719 5717 5714 5712 5709 5707 5705 5704 5702
5876 5874 5873 5872 5871 5870 5870 5869 5868 5868 5867 5866 5866 5865 5864 5863 5862 5861 5860 5859 5858 5857 5856 5855 5854 5852 5851 5850 5849 5847 5846 5845 5843 5842 5841 5839 5838 5837 5835 5834 5832 5830 5828 5826 5823 5821 5818 5815 5812 5808 5804 5800 5797 5793 5791 5787 5783 5779 5775 5771 5767 5763 5759 5755 5751 5747 5743 5740 5737 5734 5732 5729 5727 5725 5723 5721 5720 5717 5715 5712 5710 5707 5706 5704 5702
5876 5875 5874 5873 5872 5871 5871 5870 5869 5869 5868 5867 5866 5865 5864 5863 5862 5861 5860 5859 5858 5856 5855 5854 5853 5852 5850 5849 5848 5846 5845 5844 5842 5841 5839 5838 5837 5835 5834 5833 5831 5828 5826 5824 5822 5820 5817 5814 5811 5808 5804 5800 5797 5794 5791 5788 5784 5780 5776 5772 5768 5765 5761 5757 5752 5748 5744 5741 5738 5735 5732 5730 5728 5726 5724 5722 5720 5718 5716 5713 5710 5708 5706 5704 5703
5877 5875 5874 5873 5873 5872 5871 5870 5870 5869 5868 5867 5867 5866 5865 5864 5863 5862 5860 5859 5858 5856 5855 5853 5852 5851 5849 5848 5847 5846 5844 5843 5841 5840 5838 5837 5835 5834 5833 5831 5829 5827 5825 5823 5821 5819 5816 5814 5811 5808 5804 5801 5797 5794 5791 5788 5784 5781 5777 5773 5769 5766 5762 5758 5754 5750 5746 5742 5738 5735 5733 5730 5728 5726 5724 5722 5721 5719 5717 5714 5712 5709 5707 5705 5703
5877 5875 5874 5873 5873 5872 5871 5871 5870 5869 5868 5868 5867 5866 5865 5864 5863 5862 5860 5859 5857 5856 5854 5853 5851 5850 5848 5847 5846 5845 5843 5842 5840 5839 5837 5836 5834 5833 5831 5830 5828 5826 5824 5822 5820 5818 5816 5813 5811 5807 5804 5801 5798 5795 5792 5788 5785 5782 5778 5774 5771 5767 5763 5759 5755 5751 5747 5743 5739 5735 5732 5730 5728 5726 5724 5722 5721 5719 5717 5715 5713 5711 5708 5706 5704
5877 5876 5875 5874 5873 5872 5871 5871 5870 5869 5869 5868 5867 5866 5865 5863 5862 5861 5860 5858 5856 5854 5853 5852 5850 5849 5848 5846 5845 5843 5842 5840 5838 5837 5836 5834 5833 5832 5830 5828 5827 5825 5823 5821 5819 5817 5815 5812 5810 5807 5803 5801 5798 5796 5793 5789 5786 5782 5779 5775 5772 5768 5764 5760 5756 5752 5748 5744 5740 5736 5733 5730 5727 5725 5723 5722 5720 5719 5717 5716 5714 5712 5709 5707 5706
5877 5876 5875 5874 5873 5872 5871 5871 5870 5869 5869 5868 5867 5866 5865 5864 5862 5860 5859 5857 5855 5854 5852 5851 5849 5848 5847 5845 5844 5843 5841 5839 5838 5836 5835 5833 5832 5830 5828 5827 5825 5823 5822 5820 5818 5816 5814 5811 5809 5806 5803 5801 5799 5796 5794 5790 5787 5783 5779 5776 5772 5769 5765 5761 5757 5753 5749 5745 5741 5737 5733 5730 5727 5724 5722 5721 5719 5718 5717 5715 5714 5712 5710 5708 5707
5877 5876 5875 5874 5873 5872 5872 5871 5870 5869 5868 5868 5867 5866 5864 5863 5862 5860 5859 5857 5856 5855 5853 5852 5850 5848 5847 5845 5844 5842 5841 5839 5837 5836 5834 5832 5831 5829 5827 5825 5823 5822 5820 5818 5817 5815 5813 5810 5808 5806 5804 5801 5799 5797 5794 5791 5787 5784 5780 5776 5773 5769 5766 5762 5758 5754 5750 5746 5742 5738 5734 5730 5727 5724 5721 5719 5718 5717 5715 5714 5713 5712 5711 5709 5708
5876 5875 5874 5874 5873 5872 5871 5871 5870 5869 5868 5867 5866 5865 5864 5863 5861 5860 5859 5858 5857 5855 5854 5852 5851 5849 5847 5845 5843 5841 5840 5838 5836 5834 5833 5831 5829 5828 5826 5824 5822 5821 5819 5817 5815 5814 5812 5810 5808 5806 5804 5802 5799 5797 5794 5791 5788 5784 5781 5778 5774 5770 5767 5763 5760 5756 5752 5747 5743 5739 5735 5731 5727 5724 5721 5719 5717 5716 5714 5713 5712 5711 5711 5710 5708
5876 5875 5874 5873 5873 5872 5871 5871 5870 5869 5868 5867 5866 5865 5864 5863 5862 5860 5859 5857 5856 5855 5853 5852 5850 5848 5847 5845 5843 5841 5839 5837 5835 5833 5832 5830 5828 5827 5825 5823 5822 5820 5818 5816 5814 5812 5811 5809 5807 5805 5803 5801 5799 5796 5793 5791 5788 5785 5782 5778 5775 5771 5768 5764 5760 5757 5753 5749 5745 5741 5736 5732 5728 5724 5721 5718 5716 5715 5713 5712 5711 5710 5710 5709 5708
5875 5874 5874 5873 5872 5872 5871 5871 5870 5869 5868 5867 5866 5865 5864 5863 5861 5860 5858 5856 5854 5853 5851 5850 5849 5847 5845 5843 5841 5839 5838 5836 5834 5832 5830 5829 5827 5825 5824 5822 5820 5818 5816 5814 5813 5811 5809 5807 5806 5804 5802 5800 5798 5795 5793 5790 5788 5785 5782 5779 5775 5772 5769 5765 5761 5757 5753 5750 5746 5742 5738 5734 5729 5725 5721 5718 5716 5714 5713 5712 5710 5709 5709 5708 5708
5875 5874 5873 5872 5872 5871 5871 5870 5869 5868 5868 5867 5866 5865 5863 5862 5860 5858 5857 5855 5853 5851 5849 5848 5846 5845 5843 5841 5839 5838 5836 5834 5833 5831 5829 5827 5825 5824 5822 5820 5818 5817 5815 5813 5811 5809 5808 5806 5804 5802 5801 5799 5797 5795 5792 5790 5788 5785 5782 5779 5776 5773 5770 5766 5762 5758 5755 5751 5747 5744 5740 5736 5731 5726 5722 5719 5716 5715 5713 5712 5710 5709 5709 5708 5707
5874 5873 5872 5872 5871 5870 5870 5869 5868 5868 5867 5866 5864 5863 5861 5860 5859 5857 5855 5853 5851 5850 5848 5846 5844 5843 5841 5840 5838 5836 5834 5833 5831 5829 5827 5825 5824 5822 5820 5819 5817 5815 5814 5812 5810 5808 5806 5804 5803 5801 5799 5797 5796 5794 5792 5790 5788 5785 5783 5780 5776 5773 5770 5767 5764 5760 5756 5752 5749 5745 5742 5737 5733 5728 5724 5720 5717 5715 5713 5712 5710 5709 5708 5708 5707
5872 5872 5871 5871 5870 5869 5868 5868 5867 5866 5865 5864 5863 5861 5860 5858 5857 5855 5853 5851 5850 5848 5847 5845 5843 5841 5840 5838 5836 5834 5832 5831 5829 5827 5826 5824 5822 5820 5818 5817 5815 5814 5812 5810 5808 5806 5805 5803 5801 5799 5797 5796 5794 5792 5790 5789 5787 5785 5782 5780 5777 5774 5771 5768 5765 5761 5758 5753 5750 5747 5743 5739 5734 5730 5725 5722 5718 5716 5714 5712 5711 5709 5708 5708 5707
5870 5870 5869 5869 5868 5867 5867 5866 5865 5864 5863 5862 5861 5859 5858 5856 5855 5853 5851 5849 5848 5846 5845 5843 5841 5839 5838 5836 5834 5833 5831 5829 5827 5825 5824 5822 5820 5819 5817 5815 5813 5812 5810 5808 5806 5805 5803 5801 5800 5798 5796 5794 5792 5790 5789 5788 5786 5784 5781 5779 5777 5774 5771 5768 5766 5762 5758 5755 5752 5748 5744 5740 5735 5731 5727 5723 5719 5717 5714 5712 5711 5710 5708 5707 5707
5869 5868 5867 5867 5866 5866 5865 5864 5863 5862 5861 5860 5859 5857 5856 5854 5853 5851 5849 5848 5846 5845 5843 5841 5840 5838 5836 5834 5832 5831 5829 5827 5825 5823 5821 5820 5818 5817 5815 5813 5811 5810 5808 5806 5805 5803 5802 5800 5798 5797 5795 5793 5791 5789 5787 5786 5784 5783 5781 5778 5776 5774 5771 5769 5766 5762 5759 5756 5753 5750 5746 5741 5737 5733 5729 5725 5721 5717 5715 5713 5711 5710 5709 5707 5707
5867 5866 5865 5865 5864 5864 5863 5862 5861 5860 5859 5858 5857 5855 5854 5853 5851 5849 5848 5846 5845 5843 5841 5840 5838 5836 5834 5832 5830 5829 5827 5826 5824 5821 5819 5817 5816 5815 5813 5812 5810 5808 5807 5805 5803 5801 5800 5798 5796 5795 5793 5791 5790 5788 5786 5784 5782 5781 5780 5778 5775 5773 5771 5769 5766 5763 5760 5757 5754 5751 5747 5743 5738 5734 5730 5726 5722 5718 5715 5713 5711 5710 5709 5708 5707
5865 5864 5863 5863 5862 5862 5861 5860 5859 5858 5857 5856 5855 5854 5852 5851 5850 5848 5846 5845 5843 5841 5839 5838 5836 5835 5833 5831 5829 5827 5825 5823 5821 5819 5817 5816 5814 5812 5811 5809 5808 5807 5805 5804 5802 5799 5798 5796 5795 5793 5791 5790 5789 5787 5785 5783 5781 5779 5778 5776 5774 5772 5770 5768 5766 5763 5760 5758 5755 5751 5748 5744 5740 5735 5731 5727 5724 5720 5716 5713 5711 5710 5709 5708 5707
5863 5863 5862 5861 5861 5860 5859 5858 5857 5856 5855 5854 5853 5852 5850 5849 5847 5846 5844 5843 5841 5839 5838 5836 5834 5833 5831 5829 5827 5825 5823 5821 5820 5818 5816 5814 5812 5811 5809 5807 5805 5804 5803 5802 5800 5798 5796 5794 5793 5791 5790 5788 5787 5786 5784 5782 5780 5778 5776 5775 5773 5771 5769 5767 5766 5764 5761 5758 5755 5752 5748 5745 5741 5737 5732 5728 5725 5721 5717 5714 5712 5711 5710 5709 5708
5862 5861 5860 5860 5859 5858 5857 5856 5855 5854 5853 5852 5851 5850 5848 5847 5845 5844 5842 5841 5839 5838 5836 5834 5833 5831 5829 5828 5826 5824 5822 5820 5818 5816 5815 5813 5811 5809 5807 5805 5803 5802 5800 5799 5798 5796 5794 5792 5791 5789 5788 5787 5785 5784 5783 5781 5779 5777 5775 5773 5772 5771 5769 5767 5765 5763 5761 5759 5756 5752 5749 5746 5742 5738 5734 5730 5726 5722 5718 5715 5713 5711 5710 5709 5709
5860 5860 5859 5858 5857 5857 5856 5854 5853 5853 5852 5850 5849 5848 5847 5845 5844 5842 5841 5839 5838 5836 5835 5833 5831 5829 5828 5826 5824 5822 5820 5819 5817 5815 5813 5812 5810 5808 5806 5804 5802 5799 5798 5797 5796 5795 5793 5790 5789 5787 5786 5785 5783 5782 5780 5779 5778 5776 5773 5772 5770 5769 5768 5766 5764 5762 5761 5758 5756 5753 5750 5747 5743 5740 5736 5732 5727 5724 5720 5717 5714 5712 5711 5711 5710
5859 5858 5857 5856 5856 5855 5854 5853 5852 5851 5850 5849 5847 5846 5845 5843 5842 5841 5839 5837 5836 5835 5833 5831 5830 5828 5826 5824 5822 5821 5819 5817 5816 5814 5812 5810 5808 5807 5805 5803 5801 5798 5796 5795 5794 5793 5791 5789 5787 5785 5784 5783 5782 5780 5778 5777 5776 5774 5772 5770 5768 5767 5766 5765 5763 5761 5759 5757 5755 5753 5750 5747 5744 5741 5738 5734 5729 5726 5722 5718 5716 5714 5713 5712 5711
5857 5856 5855 5854 5854 5852 5851 5850 5850 5849 5848 5847 5845 5844 5843 5841 5840 5838 5837 5836 5834 5833 5831 5830 5828 5826 5824 5822 5820 5819 5817 5816 5814 5812 5810 5808 5807 5805 5804 5802 5800 5797 5795 5793 5791 5790 5790 5788 5786 5784 5782 5781 5780 5778 5776 5775 5773 5772 5770 5768 5766 5765 5764 5763 5762 5760 5758 5756 5754 5752 5750 5748 5745 5742 5739 5736 5732 5728 5724 5721 5718 5716 5715 5714 5713
5855 5855 5854 5853 5851 5850 5849 5848 5848 5846 5845 5844 5843 5842 5840 5839 5838 5836 5835 5834 5832 5831 5830 5828 5826 5824 5822 5820 5818 5817 5815 5814 5812 5810 5809 5807 5805 5803 5802 5801 5799 5797 5794 5791 5788 5787 5786 5786 5785 5783 5781 5779 5777 5776 5775 5773 5771 5769 5768 5767 5765 5763 5762 5761 5760 5758 5757 5755 5754 5752 5750 5748 5746 5743 5740 5737 5734 5731 5727 5723 5720 5719 5717 5716 5714
5854 5853 5852 5851 5849 5848 5847 5846 5845 5844 5843 5842 5841 5839 5838 5837 5836 5834 5833 5831 5830 5829 5827 5825 5824 5822 5821 5819 5817 5815 5813 5812 5810 5808 5807 5805 5803 5801 5800 5798 5797 5796 5793 5790 5787 5784 5782 5782 5782 5781 5779 5777 5775 5773 5772 5771 5769 5767 5766 5765 5763 5761 5760 5758 5757 5756 5755 5754 5752 5751 5749 5748 5746 5743 5741 5738 5736 5733 5729 5726 5723 5721 5719 5717 5716
5851 5851 5850 5849 5847 5846 5845 5844 5843 5842 5841 5840 5838 5837 5836 5835 5834 5832 5831 5829 5828 5826 5824 5823 5821 5820 5818 5816 5815 5813 5812 5810 5808 5806 5805 5803 5801 5799 5798 5796 5795 5793 5792 5789 5786 5783 5780 5779 5778 5778 5777 5775 5773 5771 5769 5768 5766 5765 5764 5763 5761 5760 5758 5756 5755 5754 5753 5752 5751 5750 5748 5747 5745 5743 5741 5739 5737 5734 5731 5728 5725 5723 5720 5718 5717
5849 5848 5848 5847 5846 5844 5843 5842 5841 5840 5839 5838 5836 5835 5834 5833 5831 5830 5829 5827 5825 5823 5822 5820 5819 5817 5816 5814 5812 5811 5809 5808 5806 5804 5803 5801 5799 5797 5795 5793 5792 5791 5789 5787 5784 5782 5779 5777 5775 5774 5774 5773 5771 5769 5767 5766 5764 5763 5762 5761 5759 5758 5756 5755 5753 5752 5751 5750 5749 5748 5747 5745 5744 5743 5741 5739 5737 5735 5732 5730 5727 5724 5722 5719 5717
5847 5846 5845 5844 5843 5842 5841 5840 5839 5838 5837 5836 5834 5833 5832 5831 5829 5828 5826 5825 5823 5821 5820 5818 5816 5815 5813 5812 5810 5809 5807 5805 5803 5802 5800 5798 5796 5795 5793 5791 5789 5788 5786 5785 5783 5780 5778 5776 5774 5772 5770 5770 5769 5767 5765 5762 5761 5760 5759 5758 5757 5756 5754 5753 5751 5750 5749 5748 5747 5746 5745 5744 5743 5742 5740 5739 5737 5735 5733 5731 5729 5726 5723 5721 5719
5845 5844 5843 5842 5841 5840 5839 5838 5837 5835 5834 5833 5832 5831 5830 5829 5827 5826 5824 5823 5821 5819 5818 5816 5814 5813 5811 5810 5808 5806 5804 5802 5801 5799 5797 5795 5794 5792 5790 5788 5786 5785 5783 5782 5781 5779 5777 5774 5772 5770 5768 5766 5765 5764 5762 5760 5758 5757 5756 5756 5754 5753 5753 5752 5750 5748 5747 5746 5745 5744 5743 5742 5741 5740 5739 5738 5737 5735 5733 5732 5730 5727 5725 5723 5720
5843 5842 5841 5840 5839 5838 5837 5836 5835 5833 5832 5831 5830 5829 5828 5826 5825 5823 5822 5820 5819 5817 5816 5814 5812 5811 5809 5807 5806 5804 5802 5800 5798 5796 5794 5793 5791 5789 5787 5786 5784 5782 5781 5779 5778 5776 5775 5773 5771 5768 5766 5764 5762 5760 5759 5758 5756 5754 5754 5753 5752 5751 5750 5749 5748 5747 5745 5744 5743 5742 5741 5740 5739 5739 5738 5737 5736 5735 5733 5732 5730 5728 5726 5724 5722